When you browse on this site, cookies collect data to enhance your experience and personalize the content and advertising you see.
Visit our Privacy Policy to learn more. By continuing to use the site, you agree to this use of cookies and data.
  • In Hungary
  • List of Countries
  • For 7 days
  • Water Temperature
  • Weather Map
  • News
  • Weather Widgets
  • user-avatar
    Login

    Hourly Weather Morpeth

    Today, 1 June, Monday

    Time Temperature Precipitation Wind Pressure Humidity
    00:00 +10°C° 0 mm 2 mps 765 mmHg 86%
    01:00 +10°C° 0 mm 1 mps 765 mmHg 85%
    02:00 +10°C° 0 mm 1 mps 765 mmHg 85%
    03:00 +10°C° 0 mm 1 mps 765 mmHg 85%
    04:00 +11°C° 0 mm 1 mps 765 mmHg 83%
    05:00 +12°C° 0 mm 1 mps 765 mmHg 80%
    06:00 +13°C° 0 mm 1 mps 765 mmHg 77%
    07:00 +15°C° 0 mm 1 mps 765 mmHg 72%
    08:00 +16°C° 0 mm 2 mps 765 mmHg 66%
    09:00 +17°C° 0 mm 3 mps 765 mmHg 61%
    10:00 +18°C° 0 mm 3 mps 765 mmHg 60%
    11:00 +18°C° 0 mm 3 mps 765 mmHg 60%
    12:00 +19°C° 0 mm 4 mps 765 mmHg 59%
    13:00 +19°C° 0 mm 4 mps 765 mmHg 60%
    14:00 +18°C° 0 mm 4 mps 765 mmHg 60%
    15:00 +18°C° 0 mm 4 mps 765 mmHg 60%
    16:00 +18°C° 0 mm 4 mps 765 mmHg 62%
    17:00 +17°C° 0 mm 4 mps 765 mmHg 63%
    18:00 +17°C° 0 mm 3 mps 764 mmHg 65%
    19:00 +14°C° 0 mm 3 mps 764 mmHg 70%
    20:00 +13°C° 0 mm 2 mps 765 mmHg 75%
    21:00 +12°C° 0 mm 2 mps 765 mmHg 81%
    22:00 +11°C° 0 mm 1 mps 764 mmHg 81%
    23:00 +11°C° 0 mm 1 mps 764 mmHg 82%

    Tomorrow, 2 June, Tuesday

    Time Temperature Precipitation Wind Pressure Humidity
    00:00 +11°C° 0 mm 1 mps 764 mmHg 82%
    01:00 +10°C° 0 mm 1 mps 764 mmHg 82%
    02:00 +10°C° 0 mm 1 mps 763 mmHg 82%
    03:00 +10°C° 0 mm 1 mps 763 mmHg 82%
    04:00 +11°C° 0 mm 1 mps 763 mmHg 79%
    05:00 +12°C° 0 mm 1 mps 763 mmHg 77%
    06:00 +13°C° 0 mm 1 mps 762 mmHg 74%
    07:00 +15°C° 0 mm 1 mps 762 mmHg 69%
    08:00 +18°C° 0 mm 1 mps 762 mmHg 63%
    09:00 +19°C° 0 mm 1 mps 761 mmHg 58%
    10:00 +20°C° 0 mm 1 mps 761 mmHg 55%
    11:00 +20°C° 0 mm 2 mps 761 mmHg 52%
    12:00 +21°C° 0 mm 2 mps 760 mmHg 49%
    13:00 +21°C° 0.1 mm 2 mps 760 mmHg 52%
    14:00 +20°C° 0.1 mm 3 mps 759 mmHg 56%
    15:00 +20°C° 0.1 mm 3 mps 758 mmHg 59%
    16:00 +18°C° 0.6 mm 3 mps 758 mmHg 67%
    17:00 +17°C° 0.6 mm 2 mps 757 mmHg 76%
    18:00 +15°C° 0.6 mm 2 mps 757 mmHg 84%
    19:00 +15°C° 0.3 mm 1 mps 757 mmHg 84%
    20:00 +14°C° 0.3 mm 1 mps 757 mmHg 85%
    21:00 +14°C° 0.3 mm 1 mps 756 mmHg 85%
    22:00 +13°C° 0.3 mm 2 mps 756 mmHg 86%
    23:00 +13°C° 0.3 mm 2 mps 756 mmHg 87%

    Day after tomorrow, 3 June, Wednesday

    Time Temperature Precipitation Wind Pressure Humidity
    00:00 +13°C° 0.3 mm 2 mps 756 mmHg 88%
    01:00 +11°C° 0.8 mm 3 mps 755 mmHg 91%
    02:00 +11°C° 0.8 mm 4 mps 755 mmHg 93%
    03:00 +9°C° 0.8 mm 5 mps 755 mmHg 95%
    04:00 +9°C° 0.6 mm 6 mps 755 mmHg 94%
    05:00 +9°C° 0.6 mm 6 mps 755 mmHg 94%
    06:00 +9°C° 0.6 mm 6 mps 755 mmHg 94%
    07:00 +9°C° 0.3 mm 6 mps 755 mmHg 93%
    08:00 +9°C° 0.3 mm 7 mps 755 mmHg 93%
    09:00 +9°C° 0.3 mm 7 mps 755 mmHg 92%
    10:00 +9°C° 0.2 mm 7 mps 755 mmHg 92%
    11:00 +9°C° 0.2 mm 7 mps 755 mmHg 91%
    12:00 +9°C° 0.2 mm 7 mps 756 mmHg 91%
    13:00 +9°C° 0.1 mm 7 mps 755 mmHg 89%
    14:00 +9°C° 0.1 mm 7 mps 755 mmHg 88%
    15:00 +9°C° 0.1 mm 7 mps 755 mmHg 87%
    16:00 +9°C° 0 mm 7 mps 755 mmHg 84%
    17:00 +9°C° 0 mm 6 mps 754 mmHg 81%
    18:00 +9°C° 0 mm 6 mps 754 mmHg 78%
    19:00 +8°C° 0 mm 5 mps 754 mmHg 81%
    20:00 +8°C° 0 mm 4 mps 754 mmHg 84%
    21:00 +7°C° 0 mm 4 mps 754 mmHg 87%
    22:00 +7°C° 0 mm 3 mps 753 mmHg 88%
    23:00 +7°C° 0 mm 3 mps 753 mmHg 89%

    4 June, Thursday

    Time Temperature Precipitation Wind Pressure Humidity
    00:00 +6°C° 0 mm 2 mps 753 mmHg 90%
    01:00 +6°C° 0 mm 2 mps 752 mmHg 89%
    02:00 +7°C° 0 mm 2 mps 752 mmHg 87%
    03:00 +7°C° 0 mm 2 mps 751 mmHg 86%
    04:00 +7°C° 0 mm 2 mps 751 mmHg 84%
    05:00 +9°C° 0 mm 1 mps 750 mmHg 82%
    06:00 +9°C° 0 mm 1 mps 750 mmHg 80%
    07:00 +11°C° 0 mm 1 mps 749 mmHg 76%
    08:00 +12°C° 0 mm 2 mps 749 mmHg 71%
    09:00 +13°C° 0 mm 2 mps 749 mmHg 67%
    10:00 +13°C° 0.1 mm 3 mps 748 mmHg 65%
    11:00 +14°C° 0.1 mm 3 mps 748 mmHg 63%
    12:00 +16°C° 0.1 mm 3 mps 748 mmHg 60%
    13:00 +15°C° 0.1 mm 4 mps 747 mmHg 63%
    14:00 +15°C° 0.1 mm 4 mps 747 mmHg 65%
    15:00 +15°C° 0.1 mm 5 mps 746 mmHg 68%
    16:00 +14°C° 0.2 mm 5 mps 746 mmHg 70%
    17:00 +14°C° 0.2 mm 5 mps 745 mmHg 71%
    18:00 +14°C° 0.2 mm 5 mps 745 mmHg 73%
    19:00 +12°C° 0.2 mm 5 mps 745 mmHg 78%
    20:00 +11°C° 0.2 mm 4 mps 744 mmHg 83%
    21:00 +10°C° 0.2 mm 4 mps 744 mmHg 89%
    22:00 +10°C° 1.1 mm 4 mps 743 mmHg 90%
    23:00 +9°C° 1.1 mm 5 mps 742 mmHg 92%

    5 June, Friday

    Time Temperature Precipitation Wind Pressure Humidity
    00:00 +9°C° 1.1 mm 5 mps 741 mmHg 94%
    01:00 +10°C° 0.6 mm 6 mps 739 mmHg 93%
    02:00 +10°C° 0.6 mm 7 mps 738 mmHg 92%
    03:00 +10°C° 0.6 mm 7 mps 737 mmHg 91%
    04:00 +10°C° 0.1 mm 8 mps 736 mmHg 89%
    05:00 +10°C° 0.1 mm 8 mps 735 mmHg 87%
    06:00 +8°C° 0.1 mm 9 mps 735 mmHg 85%
    07:00 +8°C° 0.3 mm 10 mps 735 mmHg 86%
    08:00 +7°C° 0.3 mm 11 mps 735 mmHg 87%
    09:00 +7°C° 0.3 mm 12 mps 735 mmHg 87%
    10:00 +5°C° 0.6 mm 12 mps 736 mmHg 88%
    11:00 +6°C° 0.6 mm 11 mps 737 mmHg 88%
    12:00 +6°C° 0.6 mm 11 mps 737 mmHg 88%
    13:00 +8°C° 0.2 mm 9 mps 738 mmHg 81%
    14:00 +10°C° 0.2 mm 8 mps 739 mmHg 74%
    15:00 +11°C° 0.2 mm 7 mps 739 mmHg 67%
    16:00 +10°C° 0.4 mm 6 mps 740 mmHg 72%
    17:00 +10°C° 0.4 mm 6 mps 740 mmHg 77%
    18:00 +9°C° 0.4 mm 5 mps 741 mmHg 81%
    19:00 +8°C° 0.3 mm 5 mps 741 mmHg 83%
    20:00 +7°C° 0.3 mm 5 mps 741 mmHg 84%
    21:00 +6°C° 0.3 mm 5 mps 741 mmHg 85%
    22:00 +4°C° 0 mm 6 mps 741 mmHg 86%
    23:00 +3°C° 0 mm 7 mps 742 mmHg 86%

    6 June, Saturday

    Time Temperature Precipitation Wind Pressure Humidity
    00:00 +2°C° 0 mm 7 mps 742 mmHg 86%
    01:00 +1°C° 0 mm 8 mps 742 mmHg 87%
    02:00 +1°C° 0 mm 8 mps 742 mmHg 87%
    03:00 +1°C° 0 mm 8 mps 742 mmHg 87%
    04:00 +2°C° 0 mm 9 mps 741 mmHg 84%
    05:00 +2°C° 0 mm 9 mps 741 mmHg 81%
    06:00 +3°C° 0 mm 10 mps 741 mmHg 78%
    07:00 +5°C° 0 mm 10 mps 741 mmHg 75%
    08:00 +6°C° 0 mm 11 mps 741 mmHg 72%
    09:00 +7°C° 0 mm 11 mps 741 mmHg 68%
    10:00 +7°C° 0.1 mm 11 mps 741 mmHg 73%
    11:00 +7°C° 0.1 mm 11 mps 741 mmHg 77%
    12:00 +7°C° 0.1 mm 11 mps 741 mmHg 82%
    13:00 +7°C° 0.1 mm 11 mps 741 mmHg 82%
    14:00 +7°C° 0.1 mm 11 mps 741 mmHg 82%
    15:00 +8°C° 0.1 mm 11 mps 741 mmHg 83%
    16:00 +8°C° 0.1 mm 10 mps 741 mmHg 84%
    17:00 +7°C° 0.1 mm 10 mps 741 mmHg 85%
    18:00 +7°C° 0.1 mm 10 mps 741 mmHg 87%
    19:00 +7°C° 0.3 mm 10 mps 742 mmHg 88%
    20:00 +8°C° 0.3 mm 10 mps 742 mmHg 89%
    21:00 +8°C° 0.3 mm 9 mps 742 mmHg 91%
    22:00 +8°C° 0.2 mm 9 mps 742 mmHg 91%
    23:00 +9°C° 0.2 mm 8 mps 742 mmHg 91%
    Show more